Year,Month,Day,Hour,Minute,Value (Times are PST for temperature in C)
2019,04,02,00,00,7.80
2019,04,02,00,01,7.80
2019,04,02,00,02,7.80
2019,04,02,00,03,7.80
2019,04,02,00,04,7.70
2019,04,02,00,05,7.70
2019,04,02,00,06,7.70
2019,04,02,00,07,7.70
2019,04,02,00,08,7.70
2019,04,02,00,09,7.70
2019,04,02,00,10,7.70
2019,04,02,00,11,7.70
2019,04,02,00,12,7.60
2019,04,02,00,13,7.60
2019,04,02,00,14,7.60
2019,04,02,00,15,7.60
2019,04,02,00,16,7.60
2019,04,02,00,17,7.60
2019,04,02,00,18,7.60
2019,04,02,00,19,7.60
2019,04,02,00,20,7.50
2019,04,02,00,21,7.50
2019,04,02,00,22,7.50
2019,04,02,00,23,7.50
2019,04,02,00,24,7.50
2019,04,02,00,25,7.50
2019,04,02,00,26,7.50
2019,04,02,00,27,7.50
2019,04,02,00,28,7.50
2019,04,02,00,29,7.50
2019,04,02,00,30,7.50
2019,04,02,00,31,7.60
2019,04,02,00,32,7.60
2019,04,02,00,33,7.60
2019,04,02,00,34,7.60
2019,04,02,00,35,7.60
2019,04,02,00,36,7.60
2019,04,02,00,37,7.60
2019,04,02,00,38,7.60
2019,04,02,00,39,7.60
2019,04,02,00,40,7.60
2019,04,02,00,41,7.60
2019,04,02,00,42,7.60
2019,04,02,00,43,7.60
2019,04,02,00,44,7.60
2019,04,02,00,45,7.70
2019,04,02,00,46,7.70
2019,04,02,00,47,7.70
2019,04,02,00,48,7.70
2019,04,02,00,49,7.70
2019,04,02,00,50,7.70
2019,04,02,00,51,7.70
2019,04,02,00,52,7.70
2019,04,02,00,53,7.70
2019,04,02,00,54,7.80
2019,04,02,00,55,7.80
2019,04,02,00,56,7.80
2019,04,02,00,57,7.80
2019,04,02,00,58,7.90
2019,04,02,00,59,7.90
2019,04,02,01,00,7.90
2019,04,02,01,01,8.00
2019,04,02,01,02,8.00
2019,04,02,01,03,8.00
2019,04,02,01,04,8.00
2019,04,02,01,05,8.00
2019,04,02,01,06,8.00
2019,04,02,01,07,8.00
2019,04,02,01,08,8.00
2019,04,02,01,09,8.00
2019,04,02,01,10,8.00
2019,04,02,01,11,8.00
2019,04,02,01,12,8.00
2019,04,02,01,13,8.00
2019,04,02,01,14,8.00
2019,04,02,01,15,8.10
2019,04,02,01,16,8.10
2019,04,02,01,17,8.10
2019,04,02,01,18,8.20
2019,04,02,01,19,8.10
2019,04,02,01,20,8.10
2019,04,02,01,21,8.00
2019,04,02,01,22,7.90
2019,04,02,01,23,7.80
2019,04,02,01,24,7.80
2019,04,02,01,25,7.70
2019,04,02,01,26,7.70
2019,04,02,01,27,7.60
2019,04,02,01,28,7.60
2019,04,02,01,29,7.50
2019,04,02,01,30,7.50
2019,04,02,01,31,7.40
2019,04,02,01,32,7.30
2019,04,02,01,33,7.30
2019,04,02,01,34,7.30
2019,04,02,01,35,7.20
2019,04,02,01,36,7.20
2019,04,02,01,37,7.20
2019,04,02,01,38,7.10
2019,04,02,01,39,7.10
2019,04,02,01,40,7.10
2019,04,02,01,41,7.10
2019,04,02,01,42,7.00
2019,04,02,01,43,7.00
2019,04,02,01,44,7.00
2019,04,02,01,45,6.90
2019,04,02,01,46,6.90
2019,04,02,01,47,6.90
2019,04,02,01,48,6.90
2019,04,02,01,49,6.90
2019,04,02,01,50,6.90
2019,04,02,01,51,6.90
2019,04,02,01,52,6.90
2019,04,02,01,53,6.90
2019,04,02,01,54,6.90
2019,04,02,01,55,6.90
2019,04,02,01,56,6.90
2019,04,02,01,57,6.90
2019,04,02,01,58,6.90
2019,04,02,01,59,6.90
2019,04,02,02,00,6.90
2019,04,02,02,01,6.90
2019,04,02,02,02,7.00
2019,04,02,02,03,7.00
2019,04,02,02,04,7.10
2019,04,02,02,05,7.10
2019,04,02,02,06,7.20
2019,04,02,02,07,7.20
2019,04,02,02,08,7.20
2019,04,02,02,09,7.20
2019,04,02,02,10,7.20
2019,04,02,02,11,7.20
2019,04,02,02,12,7.10
2019,04,02,02,13,7.20
2019,04,02,02,14,7.20
2019,04,02,02,15,7.20
2019,04,02,02,16,7.30
2019,04,02,02,17,7.30
2019,04,02,02,18,7.30
2019,04,02,02,19,7.30
2019,04,02,02,20,7.30
2019,04,02,02,21,7.30
2019,04,02,02,22,7.30
2019,04,02,02,23,7.20
2019,04,02,02,24,7.20
2019,04,02,02,25,7.20
2019,04,02,02,26,7.20
2019,04,02,02,27,7.20
2019,04,02,02,28,7.20
2019,04,02,02,29,7.20
2019,04,02,02,30,7.20
2019,04,02,02,31,7.30
2019,04,02,02,32,7.30
2019,04,02,02,33,7.30
2019,04,02,02,34,7.40
2019,04,02,02,35,7.40
2019,04,02,02,36,7.50
2019,04,02,02,37,7.60
2019,04,02,02,38,7.60
2019,04,02,02,39,7.70
2019,04,02,02,40,7.80
2019,04,02,02,41,8.00
2019,04,02,02,42,8.10
2019,04,02,02,43,8.20
2019,04,02,02,44,8.30
2019,04,02,02,45,8.40
2019,04,02,02,46,8.50
2019,04,02,02,47,8.50
2019,04,02,02,48,8.60
2019,04,02,02,49,8.60
2019,04,02,02,50,8.70
2019,04,02,02,51,8.70
2019,04,02,02,52,8.70
2019,04,02,02,53,8.80
2019,04,02,02,54,8.80
2019,04,02,02,55,8.80
2019,04,02,02,56,8.90
2019,04,02,02,57,8.90
2019,04,02,02,58,8.90
2019,04,02,02,59,9.00
2019,04,02,03,00,9.00
2019,04,02,03,01,9.10
2019,04,02,03,02,9.10
2019,04,02,03,03,9.10
2019,04,02,03,04,9.10
2019,04,02,03,05,9.10
2019,04,02,03,06,9.10
2019,04,02,03,07,9.10
2019,04,02,03,08,9.10
2019,04,02,03,09,9.10
2019,04,02,03,10,9.10
2019,04,02,03,11,9.10
2019,04,02,03,12,9.10
2019,04,02,03,13,9.10
2019,04,02,03,14,9.10
2019,04,02,03,15,9.10
2019,04,02,03,16,9.10
2019,04,02,03,17,9.10
2019,04,02,03,18,9.10
2019,04,02,03,19,9.10
2019,04,02,03,20,9.10
2019,04,02,03,21,9.10
2019,04,02,03,22,9.10
2019,04,02,03,23,9.10
2019,04,02,03,24,9.10
2019,04,02,03,25,9.10
2019,04,02,03,26,9.10
2019,04,02,03,27,9.10
2019,04,02,03,28,9.10
2019,04,02,03,29,9.00
2019,04,02,03,30,9.00
2019,04,02,03,31,9.00
2019,04,02,03,32,9.00
2019,04,02,03,33,8.90
2019,04,02,03,34,8.90
2019,04,02,03,35,8.90
2019,04,02,03,36,8.90
2019,04,02,03,37,8.80
2019,04,02,03,38,8.80
2019,04,02,03,39,8.80
2019,04,02,03,40,8.80
2019,04,02,03,41,8.70
2019,04,02,03,42,8.70
2019,04,02,03,43,8.70
2019,04,02,03,44,8.80
2019,04,02,03,45,8.80
2019,04,02,03,46,8.80
2019,04,02,03,47,8.90
2019,04,02,03,48,8.90
2019,04,02,03,49,9.00
2019,04,02,03,50,9.00
2019,04,02,03,51,9.10
2019,04,02,03,52,9.10
2019,04,02,03,53,9.10
2019,04,02,03,54,9.20
2019,04,02,03,55,9.20
2019,04,02,03,56,9.20
2019,04,02,03,57,9.20
2019,04,02,03,58,9.20
2019,04,02,03,59,9.20
2019,04,02,04,00,9.20
2019,04,02,04,01,9.20
2019,04,02,04,02,9.20
2019,04,02,04,03,9.10
2019,04,02,04,04,9.10
2019,04,02,04,05,9.20
2019,04,02,04,06,9.10
2019,04,02,04,07,9.10
2019,04,02,04,08,9.20
2019,04,02,04,09,9.20
2019,04,02,04,10,9.20
2019,04,02,04,11,9.20
2019,04,02,04,12,9.20
2019,04,02,04,13,9.20
2019,04,02,04,14,9.20
2019,04,02,04,15,9.20
2019,04,02,04,16,9.20
2019,04,02,04,17,9.20
2019,04,02,04,18,9.30
2019,04,02,04,19,9.40
2019,04,02,04,20,9.50
2019,04,02,04,21,9.60
2019,04,02,04,22,9.70
2019,04,02,04,23,9.70
2019,04,02,04,24,9.70
2019,04,02,04,25,9.80
2019,04,02,04,26,9.80
2019,04,02,04,27,9.80
2019,04,02,04,28,9.80
2019,04,02,04,29,9.80
2019,04,02,04,30,9.80
2019,04,02,04,31,9.80
2019,04,02,04,32,9.80
2019,04,02,04,33,9.80
2019,04,02,04,34,9.80
2019,04,02,04,35,9.90
2019,04,02,04,36,9.90
2019,04,02,04,37,9.90
2019,04,02,04,38,9.90
2019,04,02,04,39,9.90
2019,04,02,04,40,9.90
2019,04,02,04,41,9.90
2019,04,02,04,42,9.90
2019,04,02,04,43,9.80
2019,04,02,04,44,9.80
2019,04,02,04,45,9.80
2019,04,02,04,46,9.70
2019,04,02,04,47,9.70
2019,04,02,04,48,9.70
2019,04,02,04,49,9.60
2019,04,02,04,50,9.60
2019,04,02,04,51,9.50
2019,04,02,04,52,9.50
2019,04,02,04,53,9.50
2019,04,02,04,54,9.40
2019,04,02,04,55,9.40
2019,04,02,04,56,9.40
2019,04,02,04,57,9.40
2019,04,02,04,58,9.40
2019,04,02,04,59,9.40
2019,04,02,05,00,9.40
2019,04,02,05,01,9.40
2019,04,02,05,02,9.40
2019,04,02,05,03,9.40
2019,04,02,05,04,9.40
2019,04,02,05,05,9.40
2019,04,02,05,06,9.40
2019,04,02,05,07,9.40
2019,04,02,05,08,9.30
2019,04,02,05,09,9.30
2019,04,02,05,10,9.20
2019,04,02,05,11,9.20
2019,04,02,05,12,9.20
2019,04,02,05,13,9.10
2019,04,02,05,14,9.10
2019,04,02,05,15,9.10
2019,04,02,05,16,9.00
2019,04,02,05,17,8.90
2019,04,02,05,18,8.90
2019,04,02,05,19,8.80
2019,04,02,05,20,8.80
2019,04,02,05,21,8.80
2019,04,02,05,22,8.70
2019,04,02,05,23,8.70
2019,04,02,05,24,8.70
2019,04,02,05,25,8.60
2019,04,02,05,26,8.60
2019,04,02,05,27,8.60
2019,04,02,05,28,8.50
2019,04,02,05,29,8.50
2019,04,02,05,30,8.50
2019,04,02,05,31,8.40
2019,04,02,05,32,8.40
2019,04,02,05,33,8.40
2019,04,02,05,34,8.40
2019,04,02,05,35,8.40
2019,04,02,05,36,8.40
2019,04,02,05,37,8.40
2019,04,02,05,38,8.40
2019,04,02,05,39,8.50
2019,04,02,05,40,8.50
2019,04,02,05,41,8.50
2019,04,02,05,42,8.50
2019,04,02,05,43,8.60
2019,04,02,05,44,8.60
2019,04,02,05,45,8.60
2019,04,02,05,46,8.60
2019,04,02,05,47,8.70
2019,04,02,05,48,8.70
2019,04,02,05,49,8.70
2019,04,02,05,50,8.70
2019,04,02,05,51,8.80
2019,04,02,05,52,8.90
2019,04,02,05,53,8.90
2019,04,02,05,54,8.90
2019,04,02,05,55,9.00
2019,04,02,05,56,9.10
2019,04,02,05,57,9.20
2019,04,02,05,58,9.20
2019,04,02,05,59,9.20
2019,04,02,06,00,9.20
2019,04,02,06,01,9.20
2019,04,02,06,02,9.20
2019,04,02,06,03,9.20
2019,04,02,06,04,9.20
2019,04,02,06,05,9.30
2019,04,02,06,06,9.30
2019,04,02,06,07,9.30
2019,04,02,06,08,9.20
2019,04,02,06,09,9.20
2019,04,02,06,10,9.10
2019,04,02,06,11,9.00
2019,04,02,06,12,8.90
2019,04,02,06,13,8.80
2019,04,02,06,14,8.80
2019,04,02,06,15,8.80
2019,04,02,06,16,8.70
2019,04,02,06,17,8.70
2019,04,02,06,18,8.70
2019,04,02,06,19,8.70
2019,04,02,06,20,8.60
2019,04,02,06,21,8.60
2019,04,02,06,22,8.60
2019,04,02,06,23,8.50
2019,04,02,06,24,8.50
2019,04,02,06,25,8.40
2019,04,02,06,26,8.40
2019,04,02,06,27,8.30
2019,04,02,06,28,8.30
2019,04,02,06,29,8.30
2019,04,02,06,30,8.20
2019,04,02,06,31,8.20
2019,04,02,06,32,8.20
2019,04,02,06,33,8.30
2019,04,02,06,34,8.30
2019,04,02,06,35,8.30
2019,04,02,06,36,8.30
2019,04,02,06,37,8.40
2019,04,02,06,38,8.40
2019,04,02,06,39,8.40
2019,04,02,06,40,8.50
2019,04,02,06,41,8.60
2019,04,02,06,42,8.60
2019,04,02,06,43,8.60
2019,04,02,06,44,8.60
2019,04,02,06,45,8.60
2019,04,02,06,46,8.60
2019,04,02,06,47,8.50
2019,04,02,06,48,8.50
2019,04,02,06,49,8.50
2019,04,02,06,50,8.50
2019,04,02,06,51,8.50
2019,04,02,06,52,8.50
2019,04,02,06,53,8.50
2019,04,02,06,54,8.60
2019,04,02,06,55,8.60
2019,04,02,06,56,8.60
2019,04,02,06,57,8.60
2019,04,02,06,58,8.60
2019,04,02,06,59,8.60
2019,04,02,07,00,8.60
2019,04,02,07,01,8.60
2019,04,02,07,02,8.60
2019,04,02,07,03,8.60
2019,04,02,07,04,8.50
2019,04,02,07,05,8.50
2019,04,02,07,06,8.50
2019,04,02,07,07,8.50
2019,04,02,07,08,8.40
2019,04,02,07,09,8.40
2019,04,02,07,10,8.40
2019,04,02,07,11,8.40
2019,04,02,07,12,8.40
2019,04,02,07,13,8.30
2019,04,02,07,14,8.30
2019,04,02,07,15,8.30
2019,04,02,07,16,8.30
2019,04,02,07,17,8.40
2019,04,02,07,18,8.50
2019,04,02,07,19,8.60
2019,04,02,07,20,8.70
2019,04,02,07,21,8.70
2019,04,02,07,22,8.70
2019,04,02,07,23,8.70
2019,04,02,07,24,8.70
2019,04,02,07,25,8.70
2019,04,02,07,26,8.70
2019,04,02,07,27,8.70
2019,04,02,07,28,8.60
2019,04,02,07,29,8.60
2019,04,02,07,30,8.60
2019,04,02,07,31,8.60
2019,04,02,07,32,8.60
2019,04,02,07,33,8.70
2019,04,02,07,34,8.70
2019,04,02,07,35,8.70
2019,04,02,07,36,8.70
2019,04,02,07,37,8.80
2019,04,02,07,38,8.90
2019,04,02,07,39,8.90
2019,04,02,07,40,9.00
2019,04,02,07,41,9.00
2019,04,02,07,42,9.10
2019,04,02,07,43,9.10
2019,04,02,07,44,9.10
2019,04,02,07,45,9.10
2019,04,02,07,46,9.20
2019,04,02,07,47,9.20
2019,04,02,07,48,9.30
2019,04,02,07,49,9.30
2019,04,02,07,50,9.30
2019,04,02,07,51,9.40
2019,04,02,07,52,9.40
2019,04,02,07,53,9.50
2019,04,02,07,54,9.50
2019,04,02,07,55,9.50
2019,04,02,07,56,9.50
2019,04,02,07,57,9.50
2019,04,02,07,58,9.60
2019,04,02,07,59,9.70
2019,04,02,08,00,9.70
2019,04,02,08,01,9.70
2019,04,02,08,02,9.80
2019,04,02,08,03,9.80
2019,04,02,08,04,9.90
2019,04,02,08,05,9.90
2019,04,02,08,06,10.00
2019,04,02,08,07,10.00
2019,04,02,08,08,10.00
2019,04,02,08,09,10.00
2019,04,02,08,10,10.00
2019,04,02,08,11,10.00
2019,04,02,08,12,10.10
2019,04,02,08,13,10.10
2019,04,02,08,14,10.10
2019,04,02,08,15,10.10
2019,04,02,08,16,10.20
2019,04,02,08,17,10.20
2019,04,02,08,18,10.20
2019,04,02,08,19,10.20
2019,04,02,08,20,10.20
2019,04,02,08,21,10.20
2019,04,02,08,22,10.20
2019,04,02,08,23,10.20
2019,04,02,08,24,10.30
2019,04,02,08,25,10.30
2019,04,02,08,26,10.40
2019,04,02,08,27,10.40
2019,04,02,08,28,10.50
2019,04,02,08,29,10.50
2019,04,02,08,30,10.50
2019,04,02,08,31,10.60
2019,04,02,08,32,10.60
2019,04,02,08,33,10.60
2019,04,02,08,34,10.60
2019,04,02,08,35,10.70
2019,04,02,08,36,10.70
2019,04,02,08,37,10.80
2019,04,02,08,38,10.80
2019,04,02,08,39,10.90
2019,04,02,08,40,10.90
2019,04,02,08,41,11.00
2019,04,02,08,42,11.00
2019,04,02,08,43,11.10
2019,04,02,08,44,11.10
2019,04,02,08,45,11.10
2019,04,02,08,46,11.10
2019,04,02,08,47,11.20
2019,04,02,08,48,11.20
2019,04,02,08,49,11.20
2019,04,02,08,50,11.30
2019,04,02,08,51,11.30
2019,04,02,08,52,11.30
2019,04,02,08,53,11.30
2019,04,02,08,54,11.40
2019,04,02,08,55,11.40
2019,04,02,08,56,11.40
2019,04,02,08,57,11.40
2019,04,02,08,58,11.40
2019,04,02,08,59,11.50
2019,04,02,09,00,11.50
2019,04,02,09,01,11.50
2019,04,02,09,02,11.50
2019,04,02,09,03,11.50
2019,04,02,09,04,11.60
2019,04,02,09,05,11.60
2019,04,02,09,06,11.60
2019,04,02,09,07,11.60
2019,04,02,09,08,11.70
2019,04,02,09,09,11.80
2019,04,02,09,10,11.80
2019,04,02,09,11,11.80
2019,04,02,09,12,11.90
2019,04,02,09,13,11.90
2019,04,02,09,14,12.00
2019,04,02,09,15,12.10
2019,04,02,09,16,12.10
2019,04,02,09,17,12.20
2019,04,02,09,18,12.20
2019,04,02,09,19,12.30
2019,04,02,09,20,12.30
2019,04,02,09,21,12.40
2019,04,02,09,22,12.40
2019,04,02,09,23,12.50
2019,04,02,09,24,12.50
2019,04,02,09,25,12.60
2019,04,02,09,26,12.60
2019,04,02,09,27,12.70
2019,04,02,09,28,12.70
2019,04,02,09,29,12.70
2019,04,02,09,30,12.70
2019,04,02,09,31,12.70
2019,04,02,09,32,12.70
2019,04,02,09,33,12.70
2019,04,02,09,34,12.70
2019,04,02,09,35,12.70
2019,04,02,09,36,12.80
2019,04,02,09,37,12.80
2019,04,02,09,38,12.90
2019,04,02,09,39,13.00
2019,04,02,09,40,13.10
2019,04,02,09,41,13.20
2019,04,02,09,42,13.30
2019,04,02,09,43,13.40
2019,04,02,09,44,13.40
2019,04,02,09,45,13.50
2019,04,02,09,46,13.60
2019,04,02,09,47,13.70
2019,04,02,09,48,13.80
2019,04,02,09,49,13.90
2019,04,02,09,50,14.00
2019,04,02,09,51,14.10
2019,04,02,09,52,14.10
2019,04,02,09,53,14.20
2019,04,02,09,54,14.30
2019,04,02,09,55,14.30
2019,04,02,09,56,14.30
2019,04,02,09,57,14.40
2019,04,02,09,58,14.40
2019,04,02,09,59,14.50
2019,04,02,10,00,14.50
2019,04,02,10,01,14.50
2019,04,02,10,02,14.60
2019,04,02,10,03,14.60
2019,04,02,10,04,14.50
2019,04,02,10,05,14.50
2019,04,02,10,06,14.50
2019,04,02,10,07,14.50
2019,04,02,10,08,14.50
2019,04,02,10,09,14.60
2019,04,02,10,10,14.60
2019,04,02,10,11,14.60
2019,04,02,10,12,14.60
2019,04,02,10,13,14.60
2019,04,02,10,14,14.60
2019,04,02,10,15,14.70
2019,04,02,10,16,14.70
2019,04,02,10,17,14.70
2019,04,02,10,18,14.80
2019,04,02,10,19,14.90
2019,04,02,10,20,15.00
2019,04,02,10,21,15.10
2019,04,02,10,22,15.20
2019,04,02,10,23,15.20
2019,04,02,10,24,15.20
2019,04,02,10,25,15.30
2019,04,02,10,26,15.30
2019,04,02,10,27,15.30
2019,04,02,10,28,15.20
2019,04,02,10,29,15.20
2019,04,02,10,30,15.20
2019,04,02,10,31,15.30
2019,04,02,10,32,15.30
2019,04,02,10,33,15.40
2019,04,02,10,34,15.50
2019,04,02,10,35,15.50
2019,04,02,10,36,15.60
2019,04,02,10,37,15.60
2019,04,02,10,38,15.60
2019,04,02,10,39,15.60
2019,04,02,10,40,15.60
2019,04,02,10,41,15.60
2019,04,02,10,42,15.60
2019,04,02,10,43,15.70
2019,04,02,10,44,15.70
2019,04,02,10,45,15.70
2019,04,02,10,46,15.70
2019,04,02,10,47,15.70
2019,04,02,10,48,15.70
2019,04,02,10,49,15.70
2019,04,02,10,50,15.70
2019,04,02,10,51,15.70
2019,04,02,10,52,15.70
2019,04,02,10,53,15.70
2019,04,02,10,54,15.70
2019,04,02,10,55,15.80
2019,04,02,10,56,15.80
2019,04,02,10,57,15.80
2019,04,02,10,58,15.80
2019,04,02,10,59,15.80
2019,04,02,11,00,15.80
2019,04,02,11,01,15.80
2019,04,02,11,02,15.90
2019,04,02,11,03,15.90
2019,04,02,11,04,15.90
2019,04,02,11,05,15.90
2019,04,02,11,06,15.90
2019,04,02,11,07,16.00
2019,04,02,11,08,16.00
2019,04,02,11,09,16.10
2019,04,02,11,10,16.10
2019,04,02,11,11,16.20
2019,04,02,11,12,16.20
2019,04,02,11,13,16.20
2019,04,02,11,14,16.30
2019,04,02,11,15,16.40
2019,04,02,11,16,16.40
2019,04,02,11,17,16.50
2019,04,02,11,18,16.50
2019,04,02,11,19,16.60
2019,04,02,11,20,16.60
2019,04,02,11,21,16.40
2019,04,02,11,22,16.30
2019,04,02,11,23,16.20
2019,04,02,11,24,16.20
2019,04,02,11,25,16.20
2019,04,02,11,26,16.20
2019,04,02,11,27,16.20
2019,04,02,11,28,16.30
2019,04,02,11,29,16.40
2019,04,02,11,30,16.40
2019,04,02,11,31,16.50
2019,04,02,11,32,16.60
2019,04,02,11,33,16.60
2019,04,02,11,34,16.60
2019,04,02,11,35,16.60
2019,04,02,11,36,16.60
2019,04,02,11,37,16.50
2019,04,02,11,38,16.40
2019,04,02,11,39,16.40
2019,04,02,11,40,16.40
2019,04,02,11,41,16.40
2019,04,02,11,42,16.50
2019,04,02,11,43,16.60
2019,04,02,11,44,16.60
2019,04,02,11,45,16.70
2019,04,02,11,46,16.70
2019,04,02,11,47,16.70
2019,04,02,11,48,16.70
2019,04,02,11,49,16.70
2019,04,02,11,50,16.80
2019,04,02,11,51,16.80
2019,04,02,11,52,16.80
2019,04,02,11,53,16.80
2019,04,02,11,54,16.80
2019,04,02,11,55,16.80
2019,04,02,11,56,16.80
2019,04,02,11,57,16.70
2019,04,02,11,58,16.70
2019,04,02,11,59,16.70
2019,04,02,12,00,16.70
2019,04,02,12,01,16.80
2019,04,02,12,02,16.70
2019,04,02,12,03,16.70
2019,04,02,12,04,16.70
2019,04,02,12,05,16.70
2019,04,02,12,06,16.80
2019,04,02,12,07,16.80
2019,04,02,12,08,16.90
2019,04,02,12,09,16.90
2019,04,02,12,10,16.90
2019,04,02,12,11,16.90
2019,04,02,12,12,16.90
2019,04,02,12,13,17.00
2019,04,02,12,14,17.10
2019,04,02,12,15,17.10
2019,04,02,12,16,17.20
2019,04,02,12,17,17.30
2019,04,02,12,18,17.30
2019,04,02,12,19,17.50
2019,04,02,12,20,17.60
2019,04,02,12,21,17.80
2019,04,02,12,22,17.80
2019,04,02,12,23,17.90
2019,04,02,12,24,17.90
2019,04,02,12,25,18.00
2019,04,02,12,26,18.10
2019,04,02,12,27,18.10
2019,04,02,12,28,18.00
2019,04,02,12,29,17.90
2019,04,02,12,30,17.80
2019,04,02,12,31,17.70
2019,04,02,12,32,17.70
2019,04,02,12,33,17.80
2019,04,02,12,34,17.90
2019,04,02,12,35,17.90
2019,04,02,12,36,17.90
2019,04,02,12,37,17.90
2019,04,02,12,38,17.90
2019,04,02,12,39,17.80
2019,04,02,12,40,17.80
2019,04,02,12,41,17.80
2019,04,02,12,42,17.80
2019,04,02,12,43,17.80
2019,04,02,12,44,17.80
2019,04,02,12,45,17.80
2019,04,02,12,46,17.80
2019,04,02,12,47,17.80
2019,04,02,12,48,17.80
2019,04,02,12,49,17.80
2019,04,02,12,50,17.90
2019,04,02,12,51,17.90
2019,04,02,12,52,18.00
2019,04,02,12,53,18.00
2019,04,02,12,54,17.90
2019,04,02,12,55,17.80
2019,04,02,12,56,17.80
2019,04,02,12,57,17.80
2019,04,02,12,58,17.80
2019,04,02,12,59,17.80
2019,04,02,13,00,17.80
2019,04,02,13,01,17.90
2019,04,02,13,02,17.90
2019,04,02,13,03,17.90
2019,04,02,13,04,17.90
2019,04,02,13,05,17.90
2019,04,02,13,06,17.80
2019,04,02,13,07,17.80
2019,04,02,13,08,17.80
2019,04,02,13,09,17.90
2019,04,02,13,10,18.10
2019,04,02,13,11,18.20
2019,04,02,13,12,18.40
2019,04,02,13,13,18.40
2019,04,02,13,14,18.50
2019,04,02,13,15,18.60
2019,04,02,13,16,18.70
2019,04,02,13,17,18.70
2019,04,02,13,18,18.70
2019,04,02,13,19,18.70
2019,04,02,13,20,18.80
2019,04,02,13,21,18.90
2019,04,02,13,22,19.00
2019,04,02,13,23,19.00
2019,04,02,13,24,19.10
2019,04,02,13,25,19.20
2019,04,02,13,26,19.20
2019,04,02,13,27,19.10
2019,04,02,13,28,18.90
2019,04,02,13,29,18.70
2019,04,02,13,30,18.70
2019,04,02,13,31,18.60
2019,04,02,13,32,18.50
2019,04,02,13,33,18.40
2019,04,02,13,34,18.40
2019,04,02,13,35,18.30
2019,04,02,13,36,18.40
2019,04,02,13,37,18.40
2019,04,02,13,38,18.40
2019,04,02,13,39,18.40
2019,04,02,13,40,18.40
2019,04,02,13,41,18.40
2019,04,02,13,42,18.40
2019,04,02,13,43,18.40
2019,04,02,13,44,18.40
2019,04,02,13,45,18.40
2019,04,02,13,46,18.40
2019,04,02,13,47,18.40
2019,04,02,13,48,18.30
2019,04,02,13,49,18.30
2019,04,02,13,50,18.40
2019,04,02,13,51,18.50
2019,04,02,13,52,18.50
2019,04,02,13,53,18.60
2019,04,02,13,54,18.70
2019,04,02,13,55,18.70
2019,04,02,13,56,18.60
2019,04,02,13,57,18.50
2019,04,02,13,58,18.50
2019,04,02,13,59,18.40
2019,04,02,14,00,18.40
2019,04,02,14,01,18.40
2019,04,02,14,02,18.40
2019,04,02,14,03,18.40
2019,04,02,14,04,18.40
2019,04,02,14,05,18.40
2019,04,02,14,06,18.40
2019,04,02,14,07,18.40
2019,04,02,14,08,18.40
2019,04,02,14,09,18.40
2019,04,02,14,10,18.40
2019,04,02,14,11,18.30
2019,04,02,14,12,18.30
2019,04,02,14,13,18.30
2019,04,02,14,14,18.40
2019,04,02,14,15,18.40
2019,04,02,14,16,18.40
2019,04,02,14,17,18.50
2019,04,02,14,18,18.50
2019,04,02,14,19,18.60
2019,04,02,14,20,18.60
2019,04,02,14,21,18.60
2019,04,02,14,22,18.60
2019,04,02,14,23,18.70
2019,04,02,14,24,18.60
2019,04,02,14,25,18.60
2019,04,02,14,26,18.60
2019,04,02,14,27,18.60
2019,04,02,14,28,18.60
2019,04,02,14,29,18.60
2019,04,02,14,30,18.60
2019,04,02,14,31,18.60
2019,04,02,14,32,18.60
2019,04,02,14,33,18.60
2019,04,02,14,34,18.70
2019,04,02,14,35,18.70
2019,04,02,14,36,18.60
2019,04,02,14,37,18.60
2019,04,02,14,38,18.60
2019,04,02,14,39,18.60
2019,04,02,14,40,18.60
2019,04,02,14,41,18.60
2019,04,02,14,42,18.70
2019,04,02,14,43,18.70
2019,04,02,14,44,18.70
2019,04,02,14,45,18.70
2019,04,02,14,46,18.70
2019,04,02,14,47,18.70
2019,04,02,14,48,18.80
2019,04,02,14,49,18.80
2019,04,02,14,50,18.80
2019,04,02,14,51,18.80
2019,04,02,14,52,18.80
2019,04,02,14,53,18.80
2019,04,02,14,54,18.80
2019,04,02,14,55,18.80
2019,04,02,14,56,18.80
2019,04,02,14,57,18.90
2019,04,02,14,58,19.00
2019,04,02,14,59,19.00
2019,04,02,15,00,19.10
2019,04,02,15,01,19.20
2019,04,02,15,02,19.30
2019,04,02,15,03,19.30
2019,04,02,15,04,19.30
2019,04,02,15,05,19.30
2019,04,02,15,06,19.30
2019,04,02,15,07,19.30
2019,04,02,15,08,19.20
2019,04,02,15,09,19.20
2019,04,02,15,10,19.30
2019,04,02,15,11,19.30
2019,04,02,15,12,19.20
2019,04,02,15,13,19.10
2019,04,02,15,14,19.00
2019,04,02,15,15,18.90
2019,04,02,15,16,18.90
2019,04,02,15,17,18.80
2019,04,02,15,18,18.80
2019,04,02,15,19,18.80
2019,04,02,15,20,18.80
2019,04,02,15,21,18.80
2019,04,02,15,22,18.90
2019,04,02,15,23,18.90
2019,04,02,15,24,18.90
2019,04,02,15,25,18.90
2019,04,02,15,26,19.00
2019,04,02,15,27,19.00
2019,04,02,15,28,19.00
2019,04,02,15,29,19.00
2019,04,02,15,30,19.00
2019,04,02,15,31,19.00
2019,04,02,15,32,19.00
2019,04,02,15,33,18.90
2019,04,02,15,34,18.80
2019,04,02,15,35,18.80
2019,04,02,15,36,18.80
2019,04,02,15,37,18.80
2019,04,02,15,38,18.80
2019,04,02,15,39,18.70
2019,04,02,15,40,18.70
2019,04,02,15,41,18.60
2019,04,02,15,42,18.60
2019,04,02,15,43,18.50
2019,04,02,15,44,18.40
2019,04,02,15,45,18.40
2019,04,02,15,46,18.40
2019,04,02,15,47,18.40
2019,04,02,15,48,18.40
2019,04,02,15,49,18.40
2019,04,02,15,50,18.50
2019,04,02,15,51,18.60
2019,04,02,15,52,18.60
2019,04,02,15,53,18.60
2019,04,02,15,54,18.60
2019,04,02,15,55,18.60
2019,04,02,15,56,18.50
2019,04,02,15,57,18.60
2019,04,02,15,58,18.60
2019,04,02,15,59,18.60
2019,04,02,16,00,18.60
2019,04,02,16,01,18.50
2019,04,02,16,02,18.50
2019,04,02,16,03,18.50
2019,04,02,16,04,18.50
2019,04,02,16,05,18.50
2019,04,02,16,06,18.50
2019,04,02,16,07,18.50
2019,04,02,16,08,18.50
2019,04,02,16,09,18.50
2019,04,02,16,10,18.50
2019,04,02,16,11,18.60
2019,04,02,16,12,18.60
2019,04,02,16,13,18.60
2019,04,02,16,14,18.60
2019,04,02,16,15,18.60
2019,04,02,16,16,18.60
2019,04,02,16,17,18.50
2019,04,02,16,18,18.50
2019,04,02,16,19,18.50
2019,04,02,16,20,18.50
2019,04,02,16,21,18.50
2019,04,02,16,22,18.50
2019,04,02,16,23,18.50
2019,04,02,16,24,18.50
2019,04,02,16,25,18.40
2019,04,02,16,26,18.40
2019,04,02,16,27,18.50
2019,04,02,16,28,18.40
2019,04,02,16,29,18.40
2019,04,02,16,30,18.40
2019,04,02,16,31,18.40
2019,04,02,16,32,18.40
2019,04,02,16,33,18.50
2019,04,02,16,34,18.50
2019,04,02,16,35,18.50
2019,04,02,16,36,18.50
2019,04,02,16,37,18.60
2019,04,02,16,38,18.60
2019,04,02,16,39,18.60
2019,04,02,16,40,18.60
2019,04,02,16,41,18.60
2019,04,02,16,42,18.60
2019,04,02,16,43,18.60
2019,04,02,16,44,18.60
2019,04,02,16,45,18.60
2019,04,02,16,46,18.60
2019,04,02,16,47,18.50
2019,04,02,16,48,18.50
2019,04,02,16,49,18.50
2019,04,02,16,50,18.40
2019,04,02,16,51,18.40
2019,04,02,16,52,18.40
2019,04,02,16,53,18.40
2019,04,02,16,54,18.40
2019,04,02,16,55,18.40
2019,04,02,16,56,18.50
2019,04,02,16,57,18.40
2019,04,02,16,58,18.40
2019,04,02,16,59,18.40
2019,04,02,17,00,18.40
2019,04,02,17,01,18.40
2019,04,02,17,02,18.40
2019,04,02,17,03,18.40
2019,04,02,17,04,18.40
2019,04,02,17,05,18.50
2019,04,02,17,06,18.50
2019,04,02,17,07,18.50
2019,04,02,17,08,18.50
2019,04,02,17,09,18.40
2019,04,02,17,10,18.40
2019,04,02,17,11,18.40
2019,04,02,17,12,18.40
2019,04,02,17,13,18.40
2019,04,02,17,14,18.30
2019,04,02,17,15,18.30
2019,04,02,17,16,18.40
2019,04,02,17,17,18.40
2019,04,02,17,18,18.40
2019,04,02,17,19,18.40
2019,04,02,17,20,18.40
2019,04,02,17,21,18.40
2019,04,02,17,22,18.50
2019,04,02,17,23,18.50
2019,04,02,17,24,18.50
2019,04,02,17,25,18.40
2019,04,02,17,26,18.30
2019,04,02,17,27,18.20
2019,04,02,17,28,18.20
2019,04,02,17,29,18.10
2019,04,02,17,30,18.00
2019,04,02,17,31,18.00
2019,04,02,17,32,17.90
2019,04,02,17,33,17.90
2019,04,02,17,34,17.90
2019,04,02,17,35,17.80
2019,04,02,17,36,17.70
2019,04,02,17,37,17.70
2019,04,02,17,38,17.70
2019,04,02,17,39,17.70
2019,04,02,17,40,17.70